QPF
0.00 0.00 0.00 0.00 0.00 0.00 0.00 0.00 0.00 0.00 0.00 0.00 0.00 0.00 0.00 0.00 0.00 0.00 0.00 0.00 0.00 0.00 0.00 0.00 0.00 0.00 0.00 0.00 0.00 0.00 0.00 0.00 0.00 0.00 0.00 0.00 0.00 0.00 0.00 0.00 0.00 0.00 0.00 0.00 0.00
0.00 0.00 0.00 0.00 0.00 0.00 0.00 0.00 0.00 0.00 0.00 0.00 0.00 0.00 0.00 0.00 0.00 0.00 0.00 0.00 0.00 0.00 0.00 0.00 0.00 0.00 0.00 0.00 0.00 0.00 0.00 0.00 0.00 0.00 0.00 0.00 0.00 0.00 0.00 0.00 0.00 0.00 0.00 0.00 0.00
0.00 0.00 0.00 0.00 0.00 0.00 0.00 0.00 0.00 0.00 0.00 0.00 0.00 0.00 0.00 0.00 0.00 0.00 0.00 0.00 0.00 0.00 0.00 0.00 0.00 0.00 0.00 0.00 0.00 0.00 0.00 0.00 0.00 0.00 0.00 0.00 0.00 0.00 0.00 0.00 0.00 0.00 0.00 0.00 0.00
0.00 0.00 0.00 0.00 0.00 0.00 0.00 0.00 0.00 0.00 0.00 0.00 0.00 0.00 0.00 0.00 0.00 0.00 0.00 0.00 0.00 0.00 0.00 0.00 0.00 0.00 0.00 0.00 0.00 0.00 0.00 0.00 0.00 0.00 0.00 0.00 0.00 0.00 0.00 0.00 0.00 0.00 0.00 0.00 0.00
0.00 0.00 0.00 0.00 0.00 0.00 0.00 0.00 0.00 0.00 0.00 0.00 0.00 0.00 0.00 0.00 0.00 0.00 0.00 0.00 0.00 0.00 0.00 0.00 0.00 0.00 0.00 0.00 0.00 0.00 0.00 0.00 0.00 0.00 0.00 0.00 0.00 0.00 0.00 0.00 0.00 0.00 0.00 0.00 0.00
0.00 0.00 0.00 0.00 0.00 0.00 0.00 0.00 0.00 0.00 0.00 0.00 0.00 0.00 0.00 0.00 0.00 0.00 0.00 0.00 0.00 0.00 0.00 0.00 0.00 0.00 0.00 0.00 0.00 0.00 0.00 0.00 0.00 0.00 0.00 0.00 0.00 0.00 0.00 0.00 0.00 0.00 0.00 0.00 0.00
0.00 0.00 0.00 0.00 0.00 0.00 0.00 0.00 0.00 0.00 0.00 0.00 0.00 0.00 0.00 0.00 0.00 0.00 0.00 0.00 0.00 0.00 0.00 0.00 0.00 0.00 0.00 0.00 0.00 0.00 0.00 0.00 0.00 0.00 0.00 0.00 0.00 0.00 0.00 0.00 0.00 0.00 0.00 0.00 0.00
0.00 0.00 0.00 0.00 0.00 0.00 0.00 0.00 0.00 0.00 0.00 0.00 0.00 0.00 0.00 0.00 0.00 0.00 0.00 0.00 0.00 0.00 0.00 0.00 0.00 0.00 0.00 0.00 0.00 0.00 0.00 0.00 0.00 0.00 0.00 0.00 0.00 0.00 0.00 0.00 0.00 0.00 0.00 0.00 0.00
0.00 0.00 0.00 0.00 0.00 0.00 0.00 0.00 0.00 0.00 0.00 0.00 0.00 0.00 0.00 0.00 0.00 0.00 0.00 0.00 0.00 0.00 0.00 0.00 0.00 0.00 0.00 0.00 0.00 0.00 0.00 0.00 0.00 0.00 0.00 0.00 0.00 0.00 0.00 0.00 0.00 0.00 0.00 0.00 0.00
0.00 0.00 0.00 0.00 0.00 0.00 0.00 0.00 0.00 0.00 0.00 0.00 0.00 0.00 0.00 0.00 0.00 0.00 0.00 0.00 0.00 0.00 0.00 0.00 0.00 0.00 0.00 0.00 0.00 0.00 0.00 0.00 0.00 0.00 0.00 0.00 0.00 0.00 0.00 0.00 0.00 0.00 0.00 0.00 0.00
0.01 0.01 0.00 0.00 0.00 0.00 0.00 0.00 0.00 0.00 0.00 0.00 0.00 0.00 0.00 0.00 0.00 0.00 0.00 0.00 0.00 0.00 0.00 0.00 0.00 0.00 0.00 0.00 0.00 0.00 0.00 0.00 0.00 0.00 0.00 0.00 0.00 0.00 0.00 0.00 0.00 0.00 0.00 0.00 0.00
0.00 0.00 0.00 0.00 0.00 0.00 0.00 0.00 0.00 0.00 0.00 0.00 0.00 0.00 0.00 0.00 0.00 0.00 0.00 0.00 0.00 0.00 0.00 0.00 0.00 0.00 0.00 0.00 0.00 0.00 0.00 0.00 0.00 0.00 0.00 0.00 0.00 0.00 0.00 0.00 0.00 0.00 0.00 0.00 0.00
0.00 0.00 0.00 0.00 0.00 0.00 0.00 0.00 0.00 0.00 0.00 0.00 0.00 0.00 0.00 0.00 0.00 0.00 0.00 0.00 0.00 0.00 0.00 0.00 0.00 0.00 0.00 0.00 0.00 0.00 0.00 0.00 0.00 0.00 0.00 0.00 0.00 0.00 0.00 0.00 0.00 0.00 0.00 0.00 0.00
0.00 0.00 0.00 0.00 0.00 0.00 0.00 0.00 0.00 0.00 0.00 0.00 0.00 0.00 0.00 0.00 0.00 0.00 0.00 0.00 0.00 0.00 0.00 0.00 0.00 0.00 0.00 0.00 0.00 0.00 0.00 0.00 0.00 0.00 0.00 0.00 0.00 0.00 0.00 0.00 0.00 0.00 0.00 0.00 0.00
0.00 0.00 0.01 0.01 0.00 0.00 0.00 0.00 0.00 0.00 0.00 0.00 0.00 0.00 0.00 0.00 0.00 0.00 0.00 0.00 0.00 0.00 0.00 0.00 0.00 0.00 0.00 0.00 0.00 0.00 0.00 0.00 0.00 0.00 0.00 0.00 0.00 0.00 0.00 0.00 0.00 0.00 0.00 0.00 0.00
0.00 0.00 0.00 0.00 0.00 0.00 0.00 0.00 0.00 0.00 0.00 0.00 0.00 0.00 0.00 0.00 0.00 0.00 0.00 0.00 0.00 0.00 0.00 0.00 0.00 0.00 0.00 0.00 0.00 0.00 0.00 0.00 0.00 0.00 0.00 0.00 0.00 0.00 0.00 0.00 0.00 0.00 0.00 0.00 0.00
0.00 0.00 0.00 0.00 0.00 0.00 0.00 0.00 0.00 0.00 0.00 0.00 0.00 0.00 0.00 0.00 0.00 0.00 0.00 0.00 0.00 0.00 0.00 0.00 0.00 0.00 0.00 0.00 0.00 0.00 0.00 0.00 0.00 0.00 0.00 0.00 0.00 0.00 0.00 0.00 0.00 0.00 0.00 0.00 0.00
0.00 0.00 0.00 0.00 0.00 0.00 0.00 0.01 0.00 0.00 0.00 0.00 0.00 0.00 0.00 0.00 0.00 0.00 0.00 0.00 0.00 0.00 0.00 0.00 0.00 0.00 0.00 0.00 0.00 0.00 0.00 0.00 0.00 0.00 0.00 0.00 0.00 0.00 0.00 0.00 0.00 0.00 0.00 0.00 0.00
0.00 0.00 0.00 0.00 0.00 0.00 0.01 0.00 0.00 0.01 0.00 0.00 0.00 0.00 0.00 0.00 0.00 0.00 0.00 0.00 0.00 0.00 0.00 0.00 0.00 0.00 0.00 0.00 0.00 0.00 0.00 0.00 0.00 0.00 0.00 0.00 0.00 0.00 0.00 0.00 0.00 0.00 0.00 0.00 0.00
0.00 0.00 0.00 0.00 0.00 0.01 0.01 0.00 0.00 0.00 0.00 0.00 0.00 0.00 0.00 0.00 0.00 0.00 0.00 0.00 0.00 0.00 0.00 0.00 0.00 0.00 0.00 0.00 0.00 0.00 0.00 0.00 0.00 0.00 0.00 0.00 0.00 0.00 0.00 0.00 0.00 0.00 0.00 0.00 0.00
0.00 0.00 0.00 0.00 0.01 0.01 0.00 0.00 0.00 0.00 0.00 0.00 0.00 0.00 0.00 0.00 0.00 0.00 0.00 0.00 0.00 0.00 0.00 0.00 0.00 0.00 0.00 0.00 0.00 0.00 0.00 0.00 0.00 0.00 0.00 0.00 0.00 0.00 0.00 0.00 0.00 0.00 0.00 0.00 0.00
0.00 0.00 0.00 0.00 0.00 0.00 0.00 0.00 0.00 0.00 0.00 0.00 0.00 0.00 0.00 0.01 0.02 0.00 0.00 0.00 0.00 0.00 0.00 0.00 0.00 0.00 0.00 0.00 0.00 0.00 0.00 0.00 0.00 0.00 0.00 0.00 0.00 0.00 0.00 0.00 0.00 0.00 0.00 0.00 0.00
0.00 0.00 0.00 0.00 0.00 0.00 0.00 0.00 0.00 0.00 0.00 0.02 0.02 0.03 0.02 0.01 0.01 0.01 0.00 0.00 0.00 0.00 0.00 0.00 0.00 0.00 0.00 0.00 0.00 0.00 0.00 0.00 0.00 0.00 0.00 0.00 0.00 0.00 0.00 0.00 0.00 0.00 0.00 0.00 0.00
0.00 0.00 0.00 0.00 0.00 0.01 0.00 0.00 0.00 0.00 0.00 0.00 0.00 0.00 0.00 0.00 0.01 0.00 0.01 0.00 0.00 0.00 0.00 0.00 0.00 0.00 0.00 0.00 0.00 0.00 0.00 0.00 0.00 0.00 0.00 0.00 0.00 0.00 0.00 0.00 0.00 0.00 0.00 0.00 0.00
0.00 0.00 0.01 0.00 0.00 0.00 0.00 0.00 0.00 0.00 0.00 0.00 0.00 0.01 0.01 0.00 0.00 0.02 0.00 0.01 0.00 0.01 0.00 0.00 0.00 0.00 0.00 0.00 0.00 0.00 0.00 0.00 0.00 0.00 0.00 0.00 0.00 0.00 0.00 0.00 0.00 0.00 0.00 0.00 0.00
0.00 0.00 0.00 0.00 0.00 0.00 0.00 0.00 0.00 0.00 0.00 0.00 0.02 0.01 0.00 0.00 0.00 0.00 0.01 0.02 0.02 0.00 0.00 0.00 0.00 0.00 0.00 0.00 0.00 0.00 0.00 0.00 0.00 0.00 0.00 0.00 0.00 0.00 0.00 0.00 0.00 0.00 0.00 0.00 0.00
0.00 0.00 0.01 0.00 0.00 0.00 0.00 0.00 0.00 0.00 0.00 0.00 0.01 0.00 0.00 0.00 0.00 0.00 0.00 0.00 0.00 0.00 0.00 0.00 0.00 0.00 0.00 0.00 0.00 0.00 0.00 0.00 0.00 0.00 0.00 0.00 0.00 0.00 0.00 0.00 0.00 0.00 0.00 0.00 0.00
MSLP
1020.65 1020.48 1020.26 1019.99 1019.83 1019.41 1019.09 1018.92 1018.73 1018.40 1017.95 1017.62 1017.53 1017.08 1016.37 1015.48 1014.99 1014.16 1013.05 1011.47 1011.43 1011.30 1011.40 1012.05 1011.97 1011.66 1011.48 1011.40 1011.47 1011.77 1010.92 1009.71 1009.01 1008.54 1007.26 1007.60 1007.29 1007.56 1007.52 1007.27 1007.06 1006.78 1006.51 1006.41 1006.88
1020.78 1020.56 1020.34 1020.10 1019.66 1019.25 1018.90 1018.75 1018.28 1017.99 1017.67 1017.56 1017.25 1016.98 1016.48 1015.84 1015.42 1013.92 1011.02 1010.60 1010.62 1011.04 1011.35 1011.17 1011.50 1011.21 1010.93 1011.09 1010.75 1010.91 1009.99 1008.78 1008.04 1007.82 1007.71 1008.14 1007.97 1008.09 1007.78 1007.10 1005.96 1006.14 1006.12 1006.58 1006.90
1020.69 1020.27 1019.97 1019.71 1019.60 1019.26 1018.92 1018.51 1018.25 1017.93 1017.60 1017.21 1017.18 1016.82 1016.37 1016.06 1014.82 1011.15 1010.18 1010.50 1010.55 1010.94 1010.56 1010.72 1010.80 1010.64 1010.26 1010.82 1010.11 1009.51 1008.85 1008.25 1007.60 1007.31 1007.86 1007.72 1007.50 1007.86 1007.53 1006.51 1005.34 1005.64 1005.34 1005.46 1005.97
1020.69 1020.28 1019.89 1019.48 1019.09 1018.90 1018.79 1018.59 1018.20 1017.87 1017.70 1017.27 1017.15 1016.66 1016.25 1015.88 1013.22 1010.10 1010.39 1010.29 1009.81 1009.96 1010.64 1010.40 1010.57 1010.46 1009.75 1009.51 1009.40 1008.44 1008.41 1008.13 1007.27 1007.64 1007.93 1007.57 1007.28 1007.04 1007.34 1005.96 1005.31 1005.47 1005.48 1005.37 1005.11
1020.56 1020.21 1019.88 1019.56 1019.18 1018.75 1018.33 1017.97 1017.88 1017.66 1017.33 1017.01 1016.80 1016.38 1016.01 1015.04 1012.08 1010.19 1010.41 1010.33 1009.99 1010.38 1010.14 1009.87 1009.66 1009.37 1008.61 1008.54 1008.85 1007.94 1007.82 1007.90 1007.69 1007.64 1007.89 1007.75 1007.10 1007.10 1006.35 1004.86 1004.94 1005.08 1004.77 1004.53 1004.31
1020.51 1020.11 1019.67 1019.26 1018.80 1018.43 1018.09 1017.86 1017.44 1016.82 1016.64 1016.56 1016.58 1016.33 1016.07 1014.20 1011.73 1010.91 1011.07 1010.54 1010.17 1010.07 1010.22 1010.01 1009.23 1008.74 1008.48 1008.04 1007.59 1007.26 1007.71 1007.52 1007.55 1007.49 1007.29 1007.14 1006.31 1007.02 1005.44 1004.39 1004.74 1004.57 1004.00 1003.63 1003.27
1020.33 1019.95 1019.54 1019.11 1018.71 1018.25 1017.71 1017.03 1016.64 1016.32 1016.23 1016.07 1016.18 1016.08 1015.06 1012.42 1011.49 1011.18 1011.23 1010.94 1010.91 1010.58 1009.97 1009.67 1009.47 1009.22 1008.63 1008.00 1007.76 1007.59 1007.64 1007.39 1007.39 1007.21 1006.98 1006.59 1005.67 1005.50 1004.52 1004.39 1004.28 1003.75 1003.26 1002.97 1002.50
1020.03 1019.67 1019.24 1018.75 1018.25 1017.68 1017.08 1016.60 1016.20 1015.62 1015.31 1015.33 1015.46 1015.40 1013.35 1011.99 1011.56 1011.42 1010.86 1010.26 1010.41 1010.62 1010.67 1009.85 1009.35 1009.23 1008.94 1008.05 1008.03 1007.61 1007.58 1006.53 1006.06 1006.41 1006.36 1006.51 1003.96 1004.54 1003.87 1003.99 1003.71 1003.34 1002.94 1002.61 1001.99
1019.83 1019.42 1018.99 1018.50 1017.98 1017.43 1016.82 1016.27 1015.49 1014.93 1014.38 1014.46 1015.14 1015.05 1012.70 1011.43 1010.94 1010.12 1010.32 1009.96 1009.41 1009.84 1009.99 1009.57 1009.25 1008.65 1008.67 1008.31 1007.95 1007.21 1005.87 1005.87 1005.64 1005.87 1005.74 1005.66 1003.72 1003.78 1003.90 1003.74 1003.42 1002.64 1002.31 1001.80 1001.43
1019.57 1019.16 1018.76 1018.29 1017.74 1017.23 1016.59 1015.90 1014.86 1014.73 1014.53 1014.51 1014.39 1014.83 1011.82 1010.27 1009.63 1009.26 1009.24 1009.42 1009.12 1008.88 1009.36 1009.34 1008.49 1007.85 1007.44 1007.15 1004.71 1004.73 1005.18 1005.17 1005.23 1005.32 1005.15 1004.55 1003.62 1003.87 1003.10 1003.19 1002.94 1002.13 1001.70 1001.40 1001.09
1019.51 1019.06 1018.57 1018.05 1017.53 1017.05 1016.32 1015.68 1015.09 1014.89 1014.45 1013.61 1013.02 1012.04 1010.44 1009.38 1009.05 1008.61 1008.89 1009.14 1009.03 1007.88 1007.00 1007.38 1007.29 1004.56 1004.42 1004.95 1005.66 1005.18 1004.95 1004.51 1004.63 1004.93 1004.77 1003.91 1003.49 1003.16 1002.72 1002.81 1002.40 1001.58 1001.03 1000.75 1000.38
1019.23 1018.79 1018.28 1017.81 1017.37 1017.00 1016.51 1016.02 1016.21 1016.45 1014.47 1012.69 1011.63 1010.88 1009.96 1009.52 1009.04 1007.73 1008.35 1008.29 1007.83 1005.93 1005.97 1006.68 1003.94 1001.71 1004.27 1005.15 1005.42 1005.27 1004.70 1004.13 1004.43 1004.55 1004.73 1003.79 1002.96 1003.04 1002.46 1002.15 1001.55 1000.88 1000.39 1000.02 1000.05
1018.98 1018.50 1017.97 1017.44 1016.99 1017.00 1016.69 1016.18 1016.10 1015.97 1014.74 1011.10 1009.93 1009.46 1009.25 1008.96 1008.61 1006.83 1007.37 1006.76 1006.17 1005.53 1003.84 1002.23 998.80 1003.32 1003.87 1003.85 1004.43 1004.27 1003.86 1004.18 1004.10 1004.38 1004.40 1003.95 1002.50 1002.61 1001.51 1001.50 1000.48 999.95 999.92 999.68 999.97
1018.77 1018.23 1017.72 1017.32 1017.10 1016.99 1016.32 1016.11 1016.04 1015.84 1014.20 1010.44 1009.00 1008.32 1008.14 1008.00 1007.59 1006.23 1005.86 1005.89 1005.04 1003.95 1003.86 1002.59 1001.49 1002.04 1002.85 1002.86 1003.76 1003.28 1004.33 1004.58 1004.89 1005.02 1003.87 1004.21 1001.94 1002.02 1001.11 1000.29 999.45 998.98 999.09 999.13 999.63
1018.56 1018.01 1017.54 1017.20 1017.02 1016.49 1016.10 1016.05 1015.64 1015.61 1012.80 1008.93 1008.12 1007.22 1007.25 1007.43 1006.75 1004.79 1005.26 1005.14 1004.08 1003.29 1003.12 1000.60 1001.01 1001.43 1001.62 1001.01 1002.54 1002.18 1004.02 1004.35 1004.83 1005.02 1004.90 1004.19 1003.29 1001.21 1001.00 999.43 998.41 998.04 998.49 999.16 999.93
1018.09 1017.47 1017.06 1016.58 1016.66 1016.08 1016.02 1015.95 1015.52 1014.65 1011.20 1008.41 1007.56 1007.18 1006.90 1006.49 1006.13 1005.22 1004.91 1004.86 1004.04 1003.62 1002.46 1001.29 1000.84 1000.61 999.43 1001.31 1002.03 1003.03 1003.55 1004.06 1004.39 1004.53 1003.57 1003.13 1003.15 999.69 999.44 998.35 997.55 997.16 997.86 998.82 999.89
1017.63 1016.96 1016.55 1016.35 1016.24 1016.24 1016.10 1015.50 1015.07 1013.01 1010.18 1008.92 1008.21 1007.60 1007.15 1007.03 1006.70 1006.14 1005.00 1004.52 1003.55 1003.06 1001.85 1001.24 1000.44 999.65 999.87 1000.57 1001.59 1002.25 1002.89 1003.29 1003.68 1003.42 1001.57 1002.24 1001.96 998.77 998.19 997.65 997.36 997.16 997.64 998.88 1000.00
1017.17 1016.52 1016.41 1016.12 1016.17 1016.14 1016.21 1015.69 1014.25 1011.82 1010.60 1009.48 1008.80 1007.97 1007.55 1007.70 1008.34 1007.60 1006.07 1004.34 1004.21 1002.91 1001.56 1000.66 999.97 998.98 998.57 998.69 999.45 1000.20 1000.65 1000.83 1001.18 1001.31 1000.99 1001.09 1000.07 997.79 997.22 996.10 996.48 996.79 997.59 998.91 1000.08
1017.02 1016.62 1016.37 1016.24 1016.09 1016.18 1016.19 1015.04 1013.24 1012.21 1011.49 1010.56 1009.29 1008.40 1008.13 1008.10 1007.96 1008.20 1007.93 1006.78 1004.78 1004.03 1003.32 1000.66 998.66 997.72 997.94 998.13 998.87 999.39 999.75 1000.31 1000.53 1001.08 1000.37 999.07 999.04 997.54 996.34 995.80 995.94 996.26 997.45 998.68 999.98
1017.56 1016.93 1016.48 1016.17 1016.13 1016.21 1016.03 1014.69 1013.50 1012.53 1011.89 1011.16 1010.26 1009.47 1008.82 1008.69 1008.19 1008.13 1009.00 1008.39 1007.50 1006.27 1005.18 1002.15 999.53 997.84 997.80 997.87 997.92 997.70 999.24 1000.25 1000.00 999.53 999.25 998.22 997.82 996.10 995.27 995.18 995.30 996.03 997.17 998.63 1000.00
1017.50 1016.98 1016.42 1016.19 1016.36 1016.18 1015.64 1014.73 1013.70 1012.68 1012.19 1011.46 1010.58 1010.14 1009.80 1009.29 1008.67 1008.28 1008.44 1008.72 1008.78 1007.50 1005.73 1003.70 1001.27 998.10 997.37 996.16 996.07 997.65 998.13 998.52 998.88 998.83 998.05 997.40 996.19 995.21 994.48 994.64 994.98 995.65 996.78 998.30 999.67
1017.89 1017.17 1016.61 1016.16 1016.45 1016.18 1015.52 1014.82 1013.87 1012.69 1012.09 1011.48 1010.93 1010.41 1009.85 1009.34 1008.90 1008.49 1007.76 1008.52 1008.73 1008.73 1007.11 1004.86 1002.73 999.24 996.59 996.35 996.38 996.79 996.89 997.35 997.21 998.15 997.82 997.18 995.67 994.91 994.73 994.99 995.38 995.89 997.08 998.40 999.53
1018.24 1017.80 1016.88 1016.61 1016.74 1016.34 1015.54 1014.75 1013.99 1013.08 1012.35 1011.66 1011.00 1010.44 1009.95 1009.62 1009.21 1008.45 1007.92 1007.60 1008.22 1008.25 1008.05 1006.54 1003.46 1000.17 998.32 997.76 996.78 996.18 996.57 997.31 997.61 997.56 997.11 996.59 995.38 994.79 994.84 994.89 995.32 995.70 997.14 998.64 999.40
1018.62 1018.10 1017.25 1017.23 1017.41 1016.98 1016.09 1014.72 1013.90 1013.16 1012.63 1012.50 1011.48 1010.72 1010.20 1009.57 1009.03 1008.40 1008.04 1007.52 1007.46 1007.58 1007.63 1007.02 1004.73 1001.70 998.91 997.83 997.13 996.65 996.73 997.00 997.15 996.71 996.47 995.88 995.45 994.33 994.39 994.56 995.25 996.07 997.04 998.28 999.32
1018.97 1018.62 1018.24 1017.70 1017.04 1016.93 1016.42 1015.56 1014.38 1013.52 1012.93 1012.51 1011.86 1011.50 1011.16 1010.15 1009.25 1008.61 1008.71 1007.93 1007.12 1007.27 1007.39 1007.25 1005.16 1003.21 1001.10 999.93 998.99 997.67 996.47 996.49 996.33 996.55 996.15 995.95 995.30 993.83 994.08 994.42 995.08 996.22 997.12 998.13 999.05
1019.25 1018.83 1018.20 1017.66 1017.30 1016.51 1015.95 1015.14 1014.61 1013.91 1013.62 1012.47 1012.09 1011.53 1011.30 1010.71 1009.97 1009.15 1008.83 1008.19 1007.61 1007.51 1007.02 1006.53 1005.31 1003.72 1001.23 1000.19 999.27 998.08 997.10 996.31 996.25 996.25 996.13 995.85 994.66 994.46 994.48 994.84 994.99 995.79 996.80 997.45 998.20
1019.29 1018.93 1018.52 1017.26 1016.75 1016.49 1015.76 1015.10 1014.53 1014.27 1013.06 1012.67 1012.26 1011.80 1010.91 1010.04 1009.75 1009.33 1008.84 1008.46 1008.05 1007.51 1006.88 1006.29 1005.38 1003.92 1001.22 1000.55 999.29 997.64 996.43 996.40 996.32 996.24 996.22 995.41 994.58 994.53 994.21 994.05 994.34 995.11 996.15 996.26 997.09
Thickness
5622 5625 5627 5630 5631 5635 5639 5643 5645 5650 5656 5661 5666 5674 5683 5695 5702 5712 5724 5739 5735 5740 5740 5738 5740 5744 5744 5740 5742 5737 5720 5725 5739 5741 5765 5771 5766 5769 5774 5765 5770 5778 5776 5780 5781
5615 5617 5619 5622 5627 5631 5635 5636 5641 5646 5650 5653 5658 5664 5671 5679 5685 5696 5736 5734 5732 5730 5728 5731 5726 5731 5730 5729 5733 5725 5719 5734 5759 5761 5756 5753 5754 5753 5754 5758 5771 5773 5781 5777 5773
5611 5614 5615 5617 5618 5622 5626 5632 5634 5637 5641 5646 5649 5656 5663 5667 5679 5711 5727 5726 5725 5722 5730 5728 5727 5726 5721 5721 5725 5730 5717 5748 5757 5763 5751 5751 5753 5754 5748 5750 5776 5765 5774 5780 5773
5605 5607 5610 5613 5616 5617 5617 5620 5624 5629 5631 5636 5639 5646 5653 5658 5675 5710 5715 5720 5726 5724 5716 5716 5712 5707 5713 5709 5727 5720 5729 5741 5756 5752 5740 5743 5752 5750 5743 5760 5778 5771 5769 5769 5770
5600 5601 5602 5603 5606 5609 5612 5615 5616 5619 5624 5629 5633 5639 5645 5653 5679 5700 5704 5709 5712 5711 5707 5706 5704 5708 5708 5717 5717 5711 5726 5734 5740 5740 5735 5739 5739 5736 5746 5776 5775 5767 5767 5764 5766
5591 5593 5595 5597 5600 5602 5604 5605 5609 5615 5617 5619 5620 5625 5629 5637 5676 5683 5683 5695 5698 5699 5696 5697 5701 5712 5707 5707 5711 5724 5716 5722 5725 5729 5736 5727 5738 5725 5756 5772 5759 5759 5759 5762 5765
5582 5583 5584 5586 5588 5591 5595 5599 5603 5607 5608 5609 5609 5612 5623 5650 5662 5671 5668 5676 5678 5683 5687 5693 5695 5690 5698 5695 5710 5709 5696 5706 5708 5722 5722 5732 5722 5726 5758 5759 5748 5752 5756 5756 5764
5571 5571 5573 5575 5577 5581 5585 5588 5592 5597 5600 5600 5601 5605 5623 5641 5647 5654 5661 5666 5667 5668 5670 5680 5686 5682 5679 5693 5690 5689 5688 5685 5716 5720 5723 5719 5717 5740 5760 5747 5741 5745 5747 5751 5760
5560 5559 5559 5559 5560 5563 5566 5570 5577 5582 5588 5589 5587 5590 5614 5628 5637 5648 5651 5655 5660 5659 5663 5668 5670 5671 5671 5666 5667 5674 5679 5683 5702 5714 5718 5712 5717 5740 5748 5739 5733 5745 5748 5757 5763
5547 5546 5544 5543 5543 5544 5546 5551 5559 5561 5564 5565 5572 5573 5606 5622 5629 5639 5643 5643 5648 5652 5647 5649 5656 5659 5664 5660 5667 5682 5675 5686 5684 5707 5711 5711 5714 5723 5743 5734 5732 5744 5752 5757 5762
5530 5527 5524 5521 5520 5521 5525 5528 5537 5539 5540 5553 5562 5574 5595 5605 5613 5622 5625 5626 5629 5644 5647 5649 5642 5666 5680 5680 5678 5685 5681 5685 5693 5703 5700 5709 5708 5718 5734 5730 5731 5742 5752 5757 5765
5511 5507 5504 5500 5497 5495 5496 5497 5490 5489 5511 5528 5540 5553 5568 5577 5585 5605 5606 5612 5619 5639 5648 5632 5653 5703 5689 5673 5665 5668 5670 5677 5689 5698 5693 5702 5702 5711 5722 5726 5735 5744 5753 5761 5766
5492 5487 5483 5477 5474 5468 5467 5466 5461 5461 5475 5524 5525 5533 5540 5549 5558 5587 5590 5602 5618 5624 5643 5659 5709 5685 5672 5671 5659 5663 5666 5673 5679 5687 5688 5684 5690 5696 5725 5727 5741 5751 5756 5763 5763
5471 5466 5461 5458 5455 5447 5451 5447 5445 5446 5458 5509 5509 5514 5518 5524 5538 5566 5580 5588 5605 5623 5632 5645 5682 5667 5659 5660 5660 5654 5668 5666 5664 5657 5662 5677 5662 5685 5715 5723 5739 5751 5756 5763 5764
5454 5450 5447 5443 5442 5440 5438 5433 5433 5433 5464 5503 5488 5506 5510 5510 5521 5550 5558 5569 5589 5610 5620 5653 5655 5652 5654 5675 5672 5670 5663 5658 5655 5643 5647 5662 5649 5691 5705 5717 5739 5753 5757 5758 5755
5445 5442 5441 5437 5430 5429 5424 5420 5424 5436 5452 5487 5490 5492 5499 5504 5509 5534 5544 5554 5579 5587 5615 5638 5656 5660 5682 5670 5670 5666 5654 5650 5651 5651 5633 5664 5653 5697 5712 5726 5740 5757 5760 5753 5748
5437 5436 5432 5425 5423 5415 5411 5414 5420 5427 5474 5475 5475 5484 5489 5489 5493 5504 5523 5534 5557 5563 5591 5618 5634 5659 5664 5655 5659 5653 5640 5621 5619 5625 5647 5670 5661 5705 5726 5736 5741 5750 5757 5749 5743
5432 5430 5423 5415 5408 5403 5399 5403 5404 5447 5455 5465 5468 5479 5481 5480 5468 5480 5505 5531 5547 5569 5594 5602 5611 5644 5665 5663 5661 5660 5659 5646 5624 5633 5653 5677 5660 5706 5735 5749 5753 5755 5755 5747 5739
5426 5423 5416 5408 5402 5396 5392 5397 5420 5430 5436 5440 5460 5468 5472 5476 5480 5475 5479 5498 5537 5553 5557 5598 5623 5657 5663 5671 5668 5658 5643 5670 5658 5647 5657 5684 5682 5718 5738 5741 5746 5753 5750 5744 5737
5419 5416 5411 5403 5399 5396 5395 5404 5414 5425 5428 5435 5437 5453 5459 5464 5475 5480 5457 5472 5487 5516 5535 5577 5604 5643 5650 5661 5668 5668 5673 5639 5651 5642 5639 5673 5677 5709 5733 5739 5748 5751 5747 5739 5733
5416 5414 5408 5400 5395 5397 5402 5406 5413 5423 5422 5424 5434 5437 5444 5451 5468 5477 5476 5478 5468 5493 5530 5560 5585 5624 5641 5652 5659 5652 5650 5653 5662 5660 5658 5663 5690 5732 5741 5743 5750 5756 5750 5740 5735
5409 5411 5402 5399 5396 5392 5402 5409 5415 5423 5425 5424 5429 5435 5439 5452 5455 5468 5484 5471 5476 5475 5499 5540 5563 5603 5641 5658 5670 5667 5668 5670 5665 5648 5670 5673 5694 5732 5735 5738 5745 5749 5742 5739 5736
5406 5397 5397 5393 5391 5397 5406 5411 5415 5419 5423 5425 5427 5435 5442 5443 5447 5463 5475 5485 5481 5480 5481 5512 5556 5594 5611 5628 5653 5657 5665 5664 5662 5665 5660 5669 5692 5730 5730 5738 5744 5749 5740 5734 5733
5407 5404 5401 5391 5386 5391 5395 5415 5416 5425 5421 5415 5426 5435 5439 5445 5458 5463 5472 5485 5490 5494 5491 5501 5536 5574 5617 5632 5645 5646 5651 5658 5658 5659 5666 5679 5698 5725 5731 5738 5743 5741 5740 5736 5730
5404 5402 5396 5392 5397 5392 5395 5400 5410 5415 5420 5418 5420 5421 5421 5434 5449 5458 5452 5469 5490 5494 5493 5492 5528 5554 5581 5596 5611 5628 5651 5656 5655 5663 5663 5681 5693 5722 5730 5738 5738 5737 5736 5732 5728
5409 5406 5405 5399 5398 5404 5400 5410 5407 5414 5410 5420 5418 5425 5424 5422 5437 5442 5451 5460 5471 5479 5494 5504 5523 5546 5586 5599 5610 5618 5637 5655 5660 5665 5675 5684 5697 5720 5727 5730 5736 5735 5733 5733 5732
5408 5406 5403 5413 5407 5402 5407 5409 5409 5408 5421 5421 5420 5417 5422 5435 5437 5441 5446 5453 5466 5477 5490 5505 5516 5540 5585 5587 5605 5618 5644 5648 5657 5671 5677 5677 5703 5718 5721 5731 5739 5739 5736 5742 5739